Regional Weather Roundup
Issued by NWS

Home | Current Version | Previous Version | Text Only | Print | Product List | Glossary On
Versions: 1 2 3 4 5 6 7 8 9 10 11 12 13 14 15 16 17 18 19 20 21 22 23 24 25 26 27
000
ASCA42 TJSJ 272310
RWRPR
PUERTO RICO/U.S. VIRGIN ISLANDS HOURLY WEATHER ROUNDUP
NATIONAL WEATHER SERVICE SAN JUAN PR
700 PM AST MON FEB 27 2017

PRZ001>002-007>008-010-280000-
PUERTO RICO

CITY           SKY/WX    TMP DP  RH WIND       PRES   REMARKS
SAN JUAN LMM   PTCLDY    79  72  78 E15       30.08R
AGUADILLA      PTCLDY    77  68  73 E12G21    30.09R
CEIBA          MOCLDY    81  72  74 NE13      30.10R
$$

VIZ001>002-280000-
U.S. VIRGIN ISLANDS

CITY           SKY/WX    TMP DP  RH WIND       PRES   REMARKS
CHARLOTTE AMA  LGT RAIN  79  73  83 E14G21    30.07R
CHRISTIANSTED  PTCLDY    79  70  73 E10       30.06R
$$

HOURLY WEATHER ROUNDUP FOR THE NEWS MEDIA

CITY           SKY/WX    TMP DP  RH WIND       PRES   REMARKS
ORLANDO        PTCLDY    78  62  57 E12       30.20R
NEW YORK       MOCLDY    47  39  74 S17       30.40R
NEWARK         MOCLDY    52  26  36 SW20      30.38R
CHICAGO        CLOUDY    51  32  48 S6        30.06F
HARTFORD       CLEAR     44  31  60 SW14      30.36R
BOSTON         PTCLDY    49  21  33 SW23G31   30.30R
DALLAS         PTSUNNY   80  62  54 S10       29.83F
PHILADELPHIA   CLOUDY    52  25  35 SW10      30.42R
LOS ANGELES    CLOUDY    56  47  71 SW6       29.82F
WASHINGTON DC  CLOUDY    53  21  28 S5        30.37S



USA.gov is the U.S. government's official web portal to all federal, state and local government web resources and services.